Location: Wells
(51.2093°N, 2.6446°W)
Time: 08:48:49
(UTC+01:00)

SO-50 - Pass Details

Date: 21 March 2026
Orbit: 567 x 673 km, 64.6° (Epoch: 17 April)

Event Time Altitude Azimuth Distance (km) Brightness Sun altitude
Rises 21:45:47 0° 311° (NW) 3,021 ? -29.1°
Reaches altitude 10° 21:48:44 10° 329° (NNW) 2,113 ? -29.5°
Maximum altitude 21:52:12 19° 15° (NNE) 1,581 ? -29.8°
Enters shadow 21:52:54 19° 27° (NNE) 1,606 ? -29.9°
